Time,TemperatureF,DewpointF,PressureIn,WindDirection,WindDirectionDegrees,WindSpeedMPH,WindSpeedGustMPH,Humidity,HourlyPrecipIn,Conditions,Clouds,dailyrainin,SoftwareType,DateUTC
2013-03-17 00:04:00,34.3,33.0,29.98,SE,127,5.0,6.0,93,0.00,,,0.00,weatherlink.com 1.10,2013-03-17 04:04:00,
2013-03-17 00:22:00,34.1,32.0,29.98,SE,134,1.0,3.0,92,0.00,,,0.00,weatherlink.com 1.10,2013-03-17 04:22:00,
2013-03-17 00:42:00,33.9,32.0,29.99,ESE,118,3.0,7.0,92,0.00,,,0.00,weatherlink.com 1.10,2013-03-17 04:42:00,
2013-03-17 01:00:00,33.7,32.0,29.99,SE,128,2.0,5.0,92,0.00,,,0.00,weatherlink.com 1.10,2013-03-17 05:00:00,
2013-03-17 01:18:00,33.3,31.0,30.00,SE,133,2.0,5.0,92,0.00,,,0.00,weatherlink.com 1.10,2013-03-17 05:18:00,
2013-03-17 01:36:00,32.9,31.0,30.00,ESE,120,2.0,3.0,92,0.00,,,0.00,weatherlink.com 1.10,2013-03-17 05:36:00,
2013-03-17 01:56:00,32.6,31.0,30.01,SE,128,1.0,5.0,93,0.00,,,0.00,weatherlink.com 1.10,2013-03-17 05:56:00,
2013-03-17 02:14:00,32.5,30.0,30.02,SSE,151,2.0,8.0,91,0.00,,,0.00,weatherlink.com 1.10,2013-03-17 06:14:00,
2013-03-17 02:32:00,32.5,30.0,30.02,SSE,162,1.0,4.0,90,0.00,,,0.00,weatherlink.com 1.10,2013-03-17 06:32:00,
2013-03-17 02:51:00,32.3,29.0,30.02,SSE,150,3.0,6.0,88,0.00,,,0.00,weatherlink.com 1.10,2013-03-17 06:51:00,
2013-03-17 03:09:00,32.2,29.0,30.03,South,174,2.0,5.0,89,0.00,,,0.00,weatherlink.com 1.10,2013-03-17 07:09:00,
2013-03-17 03:29:00,32.1,30.0,30.03,SE,133,2.0,5.0,90,0.00,,,0.00,weatherlink.com 1.10,2013-03-17 07:29:00,
2013-03-17 03:47:00,31.9,30.0,30.03,SE,133,3.0,5.0,91,0.00,,,0.00,weatherlink.com 1.10,2013-03-17 07:47:00,
2013-03-17 04:05:00,31.5,29.0,30.03,SE,134,3.0,6.0,90,0.00,,,0.00,weatherlink.com 1.10,2013-03-17 08:05:00,
2013-03-17 04:25:00,31.2,28.0,30.04,ESE,117,5.0,7.0,89,0.00,,,0.00,weatherlink.com 1.10,2013-03-17 08:25:00,
2013-03-17 04:43:00,31.2,28.0,30.05,SE,146,4.0,9.0,89,0.00,,,0.00,weatherlink.com 1.10,2013-03-17 08:43:00,
2013-03-17 05:01:00,30.7,27.0,30.06,SSE,160,5.0,9.0,87,0.00,,,0.00,weatherlink.com 1.10,2013-03-17 09:01:00,
2013-03-17 05:21:00,30.1,27.0,30.07,SSE,160,2.0,9.0,89,0.00,,,0.00,weatherlink.com 1.10,2013-03-17 09:21:00,
2013-03-17 05:39:00,29.7,27.0,30.08,SE,144,3.0,8.0,88,0.00,,,0.00,weatherlink.com 1.10,2013-03-17 09:39:00,
2013-03-17 05:57:00,29.3,26.0,30.09,South,187,5.0,8.0,86,0.00,,,0.00,weatherlink.com 1.10,2013-03-17 09:57:00,
2013-03-17 06:35:00,27.9,23.0,30.10,SW,226,10.0,11.0,80,0.00,,,0.00,weatherlink.com 1.10,2013-03-17 10:35:00,
2013-03-17 06:54:00,27.7,23.0,30.12,SSE,154,4.0,7.0,81,0.00,,,0.00,weatherlink.com 1.10,2013-03-17 10:54:00,
2013-03-17 07:12:00,27.7,23.0,30.13,SSW,195,1.0,5.0,81,0.00,,,0.00,weatherlink.com 1.10,2013-03-17 11:12:00,
2013-03-17 07:30:00,27.7,23.0,30.14,SSW,208,0.0,3.0,81,0.00,,,0.00,weatherlink.com 1.10,2013-03-17 11:30:00,
2013-03-17 07:50:00,27.8,23.0,30.15,SSW,208,0.0,0.0,82,0.00,,,0.00,weatherlink.com 1.10,2013-03-17 11:50:00,
2013-03-17 08:08:00,27.8,23.0,30.15,SSW,208,0.0,0.0,81,0.00,,,0.00,weatherlink.com 1.10,2013-03-17 12:08:00,
2013-03-17 08:26:00,28.0,23.0,30.17,SSW,208,0.0,0.0,81,0.00,,,0.00,weatherlink.com 1.10,2013-03-17 12:26:00,
2013-03-17 08:44:00,28.3,23.0,30.17,SSW,209,0.0,1.0,79,0.00,,,0.00,weatherlink.com 1.10,2013-03-17 12:44:00,
2013-03-17 09:04:00,28.9,23.0,30.18,West,274,1.0,1.0,78,0.00,,,0.00,weatherlink.com 1.10,2013-03-17 13:04:00,
2013-03-17 09:22:00,29.2,23.0,30.19,SSE,167,0.0,2.0,78,0.00,,,0.00,weatherlink.com 1.10,2013-03-17 13:22:00,
2013-03-17 09:40:00,29.5,23.0,30.19,West,263,1.0,2.0,76,0.00,,,0.00,weatherlink.com 1.10,2013-03-17 13:40:00,
2013-03-17 10:00:00,29.8,22.0,30.19,WSW,250,0.0,3.0,74,0.00,,,0.00,weatherlink.com 1.10,2013-03-17 14:00:00,
2013-03-17 10:18:00,30.3,23.0,30.20,SSE,164,1.0,3.0,75,0.00,,,0.00,weatherlink.com 1.10,2013-03-17 14:18:00,
2013-03-17 10:36:00,30.6,24.0,30.20,SW,236,1.0,2.0,75,0.00,,,0.00,weatherlink.com 1.10,2013-03-17 14:36:00,
2013-03-17 10:53:00,31.1,23.0,30.21,WSW,238,0.0,2.0,72,0.00,,,0.00,weatherlink.com 1.10,2013-03-17 14:53:00,
2013-03-17 11:13:00,31.8,23.0,30.22,SW,226,0.0,2.0,71,0.00,,,0.00,weatherlink.com 1.10,2013-03-17 15:13:00,
2013-03-17 11:30:00,32.7,23.0,30.22,East,82,3.0,5.0,68,0.00,,,0.00,weatherlink.com 1.10,2013-03-17 15:30:00,
2013-03-17 11:50:00,32.7,24.0,30.21,SSW,212,3.0,3.0,70,0.00,,,0.00,weatherlink.com 1.10,2013-03-17 15:50:00,
2013-03-17 12:06:00,33.1,23.0,30.21,SE,127,1.0,6.0,66,0.00,,,0.00,weatherlink.com 1.10,2013-03-17 16:06:00,
2013-03-17 12:22:00,33.5,22.0,30.21,SW,218,1.0,3.0,63,0.00,,,0.00,weatherlink.com 1.10,2013-03-17 16:22:00,
2013-03-17 12:42:00,33.2,22.0,30.21,South,184,1.0,4.0,64,0.00,,,0.00,weatherlink.com 1.10,2013-03-17 16:42:00,
2013-03-17 13:00:00,33.9,23.0,30.21,SSW,204,2.0,4.0,65,0.00,,,0.00,weatherlink.com 1.10,2013-03-17 17:00:00,
2013-03-17 13:20:00,34.1,24.0,30.20,SSE,150,1.0,6.0,66,0.00,,,0.00,weatherlink.com 1.10,2013-03-17 17:20:00,
2013-03-17 13:38:00,34.3,24.0,30.20,West,266,1.0,4.0,66,0.00,,,0.00,weatherlink.com 1.10,2013-03-17 17:38:00,
2013-03-17 13:56:00,34.4,23.0,30.20,ESE,121,2.0,4.0,63,0.00,,,0.00,weatherlink.com 1.10,2013-03-17 17:56:00,
2013-03-17 14:14:00,34.4,24.0,30.20,SW,221,3.0,3.0,65,0.00,,,0.00,weatherlink.com 1.10,2013-03-17 18:14:00,
2013-03-17 14:32:00,34.3,22.0,30.20,SSW,204,3.0,5.0,62,0.00,,,0.00,weatherlink.com 1.10,2013-03-17 18:32:00,
2013-03-17 14:52:00,34.7,23.0,30.19,SSW,205,2.0,6.0,62,0.00,,,0.00,weatherlink.com 1.10,2013-03-17 18:52:00,
2013-03-17 15:10:00,34.7,23.0,30.19,SSW,212,1.0,4.0,63,0.00,,,0.00,weatherlink.com 1.10,2013-03-17 19:10:00,
2013-03-17 15:28:00,35.2,24.0,30.19,SSW,210,1.0,5.0,63,0.00,,,0.00,weatherlink.com 1.10,2013-03-17 19:28:00,
2013-03-17 15:48:00,35.7,24.0,30.20,WNW,283,1.0,4.0,63,0.00,,,0.00,weatherlink.com 1.10,2013-03-17 19:48:00,
2013-03-17 16:06:00,35.1,24.0,30.20,West,266,2.0,4.0,63,0.00,,,0.00,weatherlink.com 1.10,2013-03-17 20:06:00,
2013-03-17 16:24:00,35.6,24.0,30.20,SSW,210,4.0,6.0,63,0.00,,,0.00,weatherlink.com 1.10,2013-03-17 20:24:00,
2013-03-17 16:44:00,35.2,24.0,30.20,SW,228,1.0,4.0,63,0.00,,,0.00,weatherlink.com 1.10,2013-03-17 20:44:00,
2013-03-17 17:02:00,35.6,25.0,30.20,WSW,245,5.0,5.0,65,0.00,,,0.00,weatherlink.com 1.10,2013-03-17 21:02:00,
2013-03-17 17:20:00,35.1,24.0,30.21,SW,226,2.0,4.0,64,0.00,,,0.00,weatherlink.com 1.10,2013-03-17 21:20:00,
2013-03-17 17:38:00,34.9,25.0,30.21,WSW,255,2.0,6.0,66,0.00,,,0.00,weatherlink.com 1.10,2013-03-17 21:38:00,
2013-03-17 17:58:00,34.6,24.0,30.21,SW,221,2.0,5.0,66,0.00,,,0.00,weatherlink.com 1.10,2013-03-17 21:58:00,
2013-03-17 18:16:00,34.5,23.0,30.21,West,262,1.0,4.0,64,0.00,,,0.00,weatherlink.com 1.10,2013-03-17 22:16:00,
2013-03-17 18:34:00,34.3,24.0,30.21,West,260,2.0,3.0,66,0.00,,,0.00,weatherlink.com 1.10,2013-03-17 22:34:00,
2013-03-17 18:54:00,33.9,24.0,30.21,SW,228,3.0,5.0,67,0.00,,,0.00,weatherlink.com 1.10,2013-03-17 22:54:00,
2013-03-17 19:12:00,33.5,24.0,30.22,SSW,196,1.0,3.0,69,0.00,,,0.00,weatherlink.com 1.10,2013-03-17 23:12:00,
2013-03-17 19:30:00,33.1,24.0,30.23,WSW,245,2.0,3.0,70,0.00,,,0.00,weatherlink.com 1.10,2013-03-17 23:30:00,
2013-03-17 19:50:00,32.9,24.0,30.23,WSW,242,2.0,3.0,71,0.00,,,0.00,weatherlink.com 1.10,2013-03-17 23:50:00,
2013-03-17 20:08:00,32.5,24.0,30.23,WSW,238,2.0,3.0,72,0.00,,,0.00,weatherlink.com 1.10,2013-03-18 00:08:00,
2013-03-17 20:26:00,32.4,24.0,30.23,West,263,1.0,3.0,72,0.00,,,0.00,weatherlink.com 1.10,2013-03-18 00:26:00,
2013-03-17 20:44:00,32.2,24.0,30.23,WSW,252,2.0,4.0,73,0.00,,,0.00,weatherlink.com 1.10,2013-03-18 00:44:00,
2013-03-17 21:04:00,31.9,25.0,30.24,West,261,3.0,4.0,74,0.00,,,0.00,weatherlink.com 1.10,2013-03-18 01:04:00,
2013-03-17 21:22:00,31.5,24.0,30.23,WSW,247,2.0,4.0,75,0.00,,,0.00,weatherlink.com 1.10,2013-03-18 01:22:00,
2013-03-17 21:40:00,31.1,25.0,30.23,WSW,250,1.0,4.0,77,0.00,,,0.00,weatherlink.com 1.10,2013-03-18 01:40:00,
2013-03-17 22:00:00,31.0,24.0,30.23,WSW,245,2.0,4.0,75,0.00,,,0.00,weatherlink.com 1.10,2013-03-18 02:00:00,
2013-03-17 22:18:00,31.3,24.0,30.23,SW,235,1.0,9.0,74,0.00,,,0.00,weatherlink.com 1.10,2013-03-18 02:18:00,
2013-03-17 22:36:00,31.1,24.0,30.23,SW,232,2.0,7.0,74,0.00,,,0.00,weatherlink.com 1.10,2013-03-18 02:36:00,
2013-03-17 22:56:00,30.9,23.0,30.23,West,264,0.0,4.0,73,0.00,,,0.00,weatherlink.com 1.10,2013-03-18 02:56:00,
2013-03-17 23:14:00,31.2,23.0,30.22,WSW,252,3.0,5.0,72,0.00,,,0.00,weatherlink.com 1.10,2013-03-18 03:14:00,
2013-03-17 23:32:00,31.0,23.0,30.22,WSW,240,4.0,5.0,71,0.00,,,0.00,weatherlink.com 1.10,2013-03-18 03:32:00,
2013-03-17 23:50:00,30.9,23.0,30.21,WSW,253,3.0,5.0,71,0.00,,,0.00,weatherlink.com 1.10,2013-03-18 03:50:00,